Montauk, NY

9:47 AM EDT on July 28, 2017 (GMT -0400)
Montauk

Weather History for KMTP - December, 2011

Change the Weather History Date:

Friday, December 9, 2011

  Actual Average (KHTO) Record (KHTO)
Temperature  
Mean Temperature 42 °F -  
Max Temperature 54 °F 46 °F 64 °F (1991)
Min Temperature 30 °F 28 °F 10 °F (1934)
Degree Days  
Heating Degree Days 23    
Moisture  
Dew Point 38 °F    
Average Humidity 71    
Maximum Humidity 89    
Minimum Humidity 61    
Precipitation  
Precipitation 0.00 in - - ()
Sea Level Pressure  
Sea Level Pressure 30.30 in    
Wind  
Wind Speed 4 mph (SSW)    
Max Wind Speed 10 mph    
Max Gust Speed 21 mph    
Averages and records for this station are not official NWS values.
T = Trace of Precipitation, MM = Missing Value Source: NWS Daily Summary

Daily Weather History Graph

Daily Weather History Graph

Search for Another Location

Airport or City:

Trip Planner

Search our weather history database for the weather conditions in past years. The results will help you decide how hot, cold, wet, or windy it might be!

Date:

Astronomy

Dec. 09, 2011 Rise Set
Actual Time 7:00 AM EST 4:19 PM EST
Civil Twilight 6:29 AM EST 4:49 PM EST
Nautical Twilight 5:55 AM EST 5:24 PM EST
Astronomical Twilight 5:21 AM EST 5:57 PM EST
Moon 3:40 PM EST (12/9) 6:05 AM EST (12/9)
Length of Visible Light 10h 20m
Length of Day
9h 18m
Waxing Gibbous, 99% of the Moon is Illuminated
Dec 9
Waxing Gibbous
Dec 10
Full
Dec 17
Last Quarter
Dec 24
New
Jan 1
First Quarter

Hourly Weather History & Observations

Time (EST) Temp. Windchill Dew Point Humidity Pressure Visibility Wind Dir Wind Speed Gust Speed Precip Events Conditions
12:54 AM 42.1 °F 39.2 °F 30.9 °F 65% 30.35 in - SW 4.6 mph - N/A   Unknown
1:54 AM 41.0 °F - 32.0 °F 70% 30.35 in - Calm Calm - N/A   Unknown
2:54 AM 39.9 °F - 30.9 °F 70% 30.35 in - Calm Calm - N/A   Unknown
3:54 AM 34.0 °F - 28.0 °F 79% 30.33 in - Calm Calm - N/A   Unknown
4:54 AM 39.9 °F 37.8 °F 30.9 °F 70% 30.35 in - SW 3.5 mph - N/A   Unknown
5:54 AM 30.9 °F - 27.0 °F 85% 30.35 in - Calm Calm - N/A   Unknown
6:54 AM 30.9 °F - 27.0 °F 85% 30.36 in - Calm Calm - N/A   Unknown
7:54 AM 33.1 °F - 30.0 °F 89% 30.37 in - Calm Calm - N/A   Unknown
8:54 AM 45.0 °F - 36.0 °F 71% 30.37 in - Calm Calm - N/A   Unknown
9:54 AM 50.0 °F - 37.9 °F 63% 30.37 in - South 9.2 mph - N/A   Unknown
10:54 AM 51.1 °F - 37.9 °F 61% 30.35 in - SSW 8.1 mph 18.4 mph N/A   Unknown
11:54 AM 52.0 °F - 39.9 °F 63% 30.32 in - SSW 8.1 mph 18.4 mph N/A   Unknown
12:54 PM 52.0 °F - 41.0 °F 66% 30.31 in - SSW 10.4 mph 20.7 mph N/A   Unknown
1:54 PM 53.1 °F - 42.1 °F 66% 30.30 in - SSW 9.2 mph 17.3 mph N/A   Unknown
2:54 PM 52.0 °F - 42.1 °F 69% 30.29 in - SW 8.1 mph - N/A   Unknown
3:54 PM 51.1 °F - 42.1 °F 71% 30.27 in - SSW 5.8 mph - N/A   Unknown
4:54 PM 51.1 °F - 42.1 °F 71% 30.26 in - South 8.1 mph 16.1 mph N/A   Unknown
5:54 PM 52.0 °F - 42.1 °F 69% 30.24 in - South 10.4 mph 17.3 mph N/A   Unknown
6:54 PM 53.1 °F - 42.1 °F 66% 30.25 in - South 9.2 mph 20.7 mph N/A   Unknown
7:54 PM 53.1 °F - 43.0 °F 69% 30.25 in - SSW 10.4 mph 19.6 mph N/A   Unknown
8:54 PM 54.0 °F - 44.1 °F 69% 30.24 in - SSW 8.1 mph - N/A   Unknown
9:54 PM 52.0 °F - 45.0 °F 77% 30.24 in - SW 4.6 mph - N/A   Unknown
10:54 PM 52.0 °F - 45.0 °F 77% 30.22 in - SW 5.8 mph - N/A   Unknown
11:54 PM 51.1 °F - 42.1 °F 71% 30.21 in - WSW 4.6 mph - N/A   Unknown